| time (UTC) | temp F | wind direction | speed MPH | gust MPH | rain 1hr in | rain 24hr in | rain mn in | humidity % | barometer mb |
| 20260507211910 | 60 | 300 | 6.0 | 16.0 | 0.00 | 0.00 | 0.00 | 38 | 1011.9 |
| 20260507210839 | 61 | 312 | 4.0 | 10.0 | 0.00 | 0.00 | 0.00 | 38 | 1011.9 |
| 20260507205842 | 61 | 298 | 4.0 | 8.0 | 0.00 | 0.00 | 0.00 | 40 | 1011.9 |
| 20260507204827 | 61 | 300 | 3.0 | 13.0 | 0.00 | 0.00 | 0.00 | 38 | 1011.8 |
| 20260507203905 | 60 | 285 | 6.0 | 13.0 | 0.00 | 0.00 | 0.00 | 37 | 1011.9 |
| 20260507202837 | 61 | 42 | 4.0 | 9.0 | 0.00 | 0.00 | 0.00 | 39 | 1011.8 |
| 20260507201830 | 60 | 346 | 2.0 | 6.0 | 0.00 | 0.00 | 0.00 | 39 | 1011.8 |
| 20260507200849 | 61 | 355 | 2.0 | 9.0 | 0.00 | 0.00 | 0.00 | 40 | 1011.9 |
| 20260507195824 | 61 | 334 | 3.0 | 10.0 | 0.00 | 0.00 | 0.00 | 40 | 1011.9 |
| 20260507194827 | 60 | 324 | 6.0 | 11.0 | 0.00 | 0.00 | 0.00 | 41 | 1011.8 |
| 20260507193846 | 60 | 300 | 3.0 | 8.0 | 0.00 | 0.00 | 0.00 | 41 | 1012.1 |
| 20260507192839 | 60 | 284 | 1.0 | 10.0 | 0.00 | 0.00 | 0.00 | 39 | 1012.2 |
| 20260507191832 | 61 | 327 | 8.0 | 12.0 | 0.00 | 0.00 | 0.00 | 39 | 1012.3 |
| 20260507190823 | 60 | 344 | 3.0 | 9.0 | 0.00 | 0.00 | 0.00 | 39 | 1012.3 |
| 20260507185826 | 60 | 301 | 3.0 | 13.0 | 0.00 | 0.00 | 0.00 | 41 | 1012.2 |
| 20260507184829 | 60 | 292 | 4.0 | 10.0 | 0.00 | 0.00 | 0.00 | 40 | 1012.3 |
| 20260507183845 | 59 | 49 | 8.0 | 13.0 | 0.00 | 0.00 | 0.00 | 38 | 1012.3 |
| 20260507182838 | 59 | 325 | 3.0 | 13.0 | 0.00 | 0.00 | 0.00 | 42 | 1012.3 |
| 20260507181830 | 59 | 306 | 4.0 | 10.0 | 0.00 | 0.00 | 0.00 | 41 | 1012.3 |
| 20260507180847 | 58 | 349 | 3.0 | 10.0 | 0.00 | 0.00 | 0.00 | 40 | 1012.4 |
| 20260507175823 | 58 | 325 | 2.0 | 15.0 | 0.00 | 0.00 | 0.00 | 43 | 1012.5 |
| 20260507174827 | 58 | 339 | 5.0 | 14.0 | 0.00 | 0.00 | 0.00 | 38 | 1012.8 |
| 20260507173844 | 58 | 300 | 5.0 | 14.0 | 0.00 | 0.00 | 0.00 | 40 | 1012.9 |
| 20260507172841 | 58 | 286 | 4.0 | 9.0 | 0.00 | 0.00 | 0.00 | 42 | 1013.0 |
| 20260507171833 | 57 | 260 | 8.0 | 16.0 | 0.00 | 0.00 | 0.00 | 40 | 1013.2 |
| 20260507170825 | 57 | 306 | 11.0 | 15.0 | 0.00 | 0.00 | 0.00 | 39 | 1013.3 |
| 20260507165850 | 57 | 288 | 5.0 | 14.0 | 0.00 | 0.00 | 0.00 | 43 | 1013.3 |
| 20260507164831 | 57 | 360 | 5.0 | 12.0 | 0.00 | 0.00 | 0.00 | 42 | 1013.4 |
| 20260507163824 | 56 | 330 | 6.0 | 13.0 | 0.00 | 0.00 | 0.00 | 42 | 1013.5 |
| 20260507162815 | 56 | 306 | 3.0 | 12.0 | 0.00 | 0.00 | 0.00 | 44 | 1013.6 |
| 20260507161833 | 56 | 273 | 4.0 | 14.0 | 0.00 | 0.00 | 0.00 | 45 | 1013.5 |
| 20260507160825 | 55 | 288 | 6.0 | 13.0 | 0.00 | 0.00 | 0.00 | 44 | 1013.6 |
| 20260507155833 | 55 | 323 | 6.0 | 12.0 | 0.00 | 0.00 | 0.00 | 43 | 1013.6 |
| 20260507154836 | 55 | 277 | 6.0 | 12.0 | 0.00 | 0.00 | 0.00 | 44 | 1013.5 |
| 20260507153829 | 54 | 300 | 6.0 | 12.0 | 0.00 | 0.00 | 0.00 | 47 | 1013.7 |
| 20260507152823 | 53 | 294 | 9.0 | 15.0 | 0.00 | 0.00 | 0.00 | 46 | 1013.5 |
| 20260507151816 | 53 | 307 | 4.0 | 11.0 | 0.00 | 0.00 | 0.00 | 48 | 1013.4 |
| 20260507150833 | 53 | 296 | 8.0 | 12.0 | 0.00 | 0.00 | 0.00 | 48 | 1013.2 |
| 20260507145833 | 52 | 335 | 4.0 | 9.0 | 0.00 | 0.00 | 0.00 | 51 | 1013.4 |
| 20260507144816 | 52 | 291 | 4.0 | 10.0 | 0.00 | 0.00 | 0.00 | 51 | 1013.5 |
| 20260507143834 | 51 | 282 | 4.0 | 10.0 | 0.00 | 0.00 | 0.00 | 52 | 1013.5 |
| 20260507142825 | 51 | 282 | 5.0 | 12.0 | 0.00 | 0.00 | 0.00 | 51 | 1013.5 |
| 20260507141844 | 50 | 360 | 7.0 | 13.0 | 0.00 | 0.00 | 0.00 | 51 | 1013.5 |
| 20260507140839 | 50 | 298 | 4.0 | 11.0 | 0.00 | 0.00 | 0.00 | 50 | 1013.6 |
| 20260507135822 | 50 | 334 | 4.0 | 11.0 | 0.00 | 0.00 | 0.00 | 51 | 1013.7 |
| 20260507134827 | 49 | 334 | 4.0 | 13.0 | 0.00 | 0.00 | 0.00 | 51 | 1013.6 |
| 20260507133905 | 49 | 302 | 6.0 | 12.0 | 0.00 | 0.00 | 0.00 | 51 | 1013.5 |
| 20260507132833 | 49 | 348 | 4.0 | 13.0 | 0.00 | 0.00 | 0.00 | 55 | 1013.5 |
| 20260507131824 | 48 | 287 | 2.0 | 8.0 | 0.00 | 0.00 | 0.00 | 62 | 1013.6 |
| 20260507130841 | 47 | 294 | 4.0 | 8.0 | 0.00 | 0.00 | 0.00 | 63 | 1013.6 |
| 20260507125845 | 47 | 312 | 3.0 | 8.0 | 0.00 | 0.00 | 0.00 | 67 | 1013.5 |
| 20260507124846 | 46 | 323 | 2.0 | 5.0 | 0.00 | 0.00 | 0.00 | 69 | 1013.4 |
| 20260507123837 | 45 | 327 | 1.0 | 5.0 | 0.00 | 0.00 | 0.00 | 72 | 1013.5 |
| 20260507122826 | 45 | 317 | 2.0 | 5.0 | 0.00 | 0.00 | 0.00 | 73 | 1013.6 |
| 20260507121843 | 44 | 355 | 1.0 | 6.0 | 0.00 | 0.00 | 0.00 | 75 | 1013.7 |
| 20260507120835 | 43 | 335 | 2.0 | 5.0 | 0.00 | 0.00 | 0.00 | 76 | 1013.7 |
| 20260507115822 | 43 | 331 | 1.0 | 5.0 | 0.00 | 0.00 | 0.00 | 77 | 1013.5 |
| 20260507114826 | 42 | 278 | 2.0 | 4.0 | 0.00 | 0.00 | 0.00 | 78 | 1013.7 |
| 20260507113845 | 42 | 288 | 2.0 | 3.0 | 0.00 | 0.00 | 0.00 | 79 | 1013.7 |
| 20260507112836 | 42 | 288 | 1.0 | 3.0 | 0.00 | 0.00 | 0.00 | 80 | 1013.7 |
| 20260507111830 | 41 | 289 | 2.0 | 3.0 | 0.00 | 0.00 | 0.00 | 80 | 1013.5 |
| 20260507110848 | 41 | 289 | 1.0 | 3.0 | 0.00 | 0.00 | 0.00 | 80 | 1013.3 |
| 20260507105833 | 41 | 289 | 1.0 | 2.0 | 0.00 | 0.00 | 0.00 | 80 | 1013.1 |
| 20260507104901 | 41 | 289 | 0.0 | 1.0 | 0.00 | 0.00 | 0.00 | 80 | 1012.9 |
| 20260507103832 | 41 | 289 | 0.0 | 2.0 | 0.00 | 0.00 | 0.00 | 80 | 1012.9 |
| 20260507102825 | 41 | 289 | 0.0 | 1.0 | 0.00 | 0.00 | 0.00 | 80 | 1012.9 |
| 20260507101843 | 41 | 289 | 0.0 | 2.0 | 0.00 | 0.00 | 0.00 | 80 | 1013.0 |
| 20260507100901 | 42 | 289 | 1.0 | 2.0 | 0.00 | 0.00 | 0.00 | 80 | 1012.9 |
| 20260507095826 | 42 | 289 | 1.0 | 3.0 | 0.00 | 0.01 | 0.00 | 80 | 1012.9 |
| 20260507094851 | 42 | 289 | 1.0 | 4.0 | 0.00 | 0.01 | 0.00 | 80 | 1012.9 |
| 20260507093824 | 42 | 299 | 2.0 | 4.0 | 0.00 | 0.01 | 0.00 | 80 | 1012.9 |
| 20260507092843 | 42 | 271 | 2.0 | 4.0 | 0.00 | 0.01 | 0.00 | 80 | 1012.9 |
| 20260507091836 | 42 | 281 | 2.0 | 4.0 | 0.00 | 0.01 | 0.00 | 80 | 1012.8 |
| 20260507090853 | 42 | 283 | 1.0 | 4.0 | 0.00 | 0.01 | 0.00 | 81 | 1012.7 |
| 20260507085815 | 42 | 281 | 1.0 | 3.0 | 0.00 | 0.06 | 0.00 | 81 | 1012.7 |
| 20260507084838 | 42 | 281 | 1.0 | 3.0 | 0.00 | 0.06 | 0.00 | 82 | 1012.6 |
| 20260507083831 | 42 | 284 | 0.0 | 1.0 | 0.00 | 0.06 | 0.00 | 82 | 1012.6 |
| 20260507082847 | 41 | 284 | 0.0 | 0.0 | 0.00 | 0.06 | 0.00 | 82 | 1012.4 |
| 20260507081839 | 41 | 284 | 0.0 | 1.0 | 0.00 | 0.06 | 0.00 | 82 | 1012.4 |
| 20260507080830 | 41 | 284 | 0.0 | 1.0 | 0.00 | 0.06 | 0.00 | 82 | 1012.4 |
| 20260507075833 | 41 | 284 | 0.0 | 0.0 | 0.00 | 0.16 | 0.00 | 82 | 1012.5 |
| 20260507074838 | 42 | 284 | 0.0 | 0.0 | 0.00 | 0.16 | 0.00 | 81 | 1012.4 |
| 20260507073829 | 42 | 284 | 0.0 | 0.0 | 0.00 | 0.16 | 0.00 | 81 | 1012.4 |
| 20260507072822 | 42 | 284 | 0.0 | 0.0 | 0.00 | 0.16 | 0.00 | 81 | 1012.4 |
| 20260507071902 | 42 | 284 | 0.0 | 0.0 | 0.00 | 0.16 | 0.00 | 80 | 1012.5 |
| 20260507070900 | 43 | 284 | 0.0 | 0.0 | 0.00 | 0.16 | 0.00 | 80 | 1012.5 |
| 20260507065851 | 44 | 284 | 0.0 | 1.0 | 0.00 | 0.27 | 0.00 | 80 | 1012.5 |
| 20260507064831 | 44 | 284 | 0.0 | 1.0 | 0.00 | 0.27 | 0.00 | 80 | 1012.4 |
| 20260507063823 | 44 | 284 | 0.0 | 1.0 | 0.00 | 0.27 | 0.00 | 80 | 1012.5 |
| 20260507062844 | 44 | 284 | 1.0 | 2.0 | 0.00 | 0.27 | 0.00 | 81 | 1012.6 |
| 20260507061839 | 43 | 284 | 1.0 | 2.0 | 0.00 | 0.27 | 0.00 | 81 | 1012.6 |
| 20260507060829 | 43 | 284 | 0.0 | 1.0 | 0.00 | 0.27 | 0.00 | 82 | 1012.6 |
| 20260507055814 | 43 | 284 | 0.0 | 0.0 | 0.00 | 0.36 | 0.00 | 82 | 1012.6 |
| 20260507054838 | 44 | 284 | 0.0 | 0.0 | 0.00 | 0.36 | 0.00 | 82 | 1012.6 |
| 20260507053831 | 44 | 284 | 0.0 | 0.0 | 0.00 | 0.36 | 0.00 | 82 | 1012.6 |
| 20260507052827 | 44 | 283 | 0.0 | 0.0 | 0.00 | 0.36 | 0.00 | 82 | 1012.7 |
| 20260507051901 | 43 | 284 | 0.0 | 0.0 | 0.00 | 0.36 | 0.00 | 81 | 1012.7 |
| 20260507050836 | 44 | 284 | 0.0 | 0.0 | 0.00 | 0.36 | 0.00 | 81 | 1012.5 |
| 20260507045840 | 44 | 284 | 0.0 | 0.0 | 0.00 | 0.43 | 0.00 | 82 | 1012.7 |
| 20260507044842 | 44 | 284 | 0.0 | 0.0 | 0.00 | 0.43 | 0.00 | 81 | 1012.6 |
| 20260507043814 | 45 | 284 | 0.0 | 0.0 | 0.00 | 0.43 | 0.00 | 81 | 1012.7 |
| 20260507042831 | 45 | 284 | 0.0 | 0.0 | 0.00 | 0.43 | 0.00 | 81 | 1012.8 |
| 20260507041852 | 45 | 284 | 0.0 | 0.0 | 0.00 | 0.43 | 0.00 | 81 | 1012.7 |
| 20260507040849 | 45 | 284 | 0.0 | 0.0 | 0.00 | 0.43 | 0.00 | 81 | 1012.8 |
| 20260507035848 | 45 | 284 | 0.0 | 0.0 | 0.00 | 0.50 | 0.43 | 80 | 1012.7 |
| 20260507034830 | 45 | 284 | 0.0 | 0.0 | 0.00 | 0.50 | 0.43 | 80 | 1012.6 |
| 20260507033847 | 46 | 283 | 0.0 | 0.0 | 0.00 | 0.50 | 0.43 | 80 | 1012.6 |
| 20260507032816 | 46 | 284 | 0.0 | 0.0 | 0.00 | 0.50 | 0.43 | 80 | 1012.8 |
| 20260507031854 | 47 | 284 | 0.0 | 0.0 | 0.00 | 0.50 | 0.43 | 79 | 1012.7 |
| 20260507030824 | 47 | 284 | 0.0 | 0.0 | 0.00 | 0.50 | 0.43 | 79 | 1012.8 |
| 20260507025829 | 47 | 283 | 0.0 | 0.0 | 0.00 | 0.61 | 0.43 | 78 | 1012.7 |
| 20260507024853 | 47 | 284 | 0.0 | 0.0 | 0.00 | 0.61 | 0.43 | 78 | 1012.7 |
| 20260507023823 | 48 | 284 | 0.0 | 0.0 | 0.00 | 0.61 | 0.43 | 77 | 1012.7 |
| 20260507022816 | 48 | 284 | 0.0 | 0.0 | 0.00 | 0.61 | 0.43 | 77 | 1012.5 |
| 20260507021836 | 49 | 284 | 0.0 | 0.0 | 0.00 | 0.61 | 0.43 | 77 | 1012.6 |
| 20260507020827 | 49 | 283 | 0.0 | 0.0 | 0.00 | 0.61 | 0.43 | 76 | 1012.4 |
| 20260507015831 | 50 | 284 | 0.0 | 0.0 | 0.00 | 0.66 | 0.43 | 74 | 1012.4 |
| 20260507014835 | 51 | 284 | 0.0 | 0.0 | 0.00 | 0.66 | 0.43 | 73 | 1012.3 |
| 20260507013828 | 51 | 284 | 0.0 | 0.0 | 0.00 | 0.66 | 0.43 | 71 | 1012.2 |
| 20260507012907 | 52 | 284 | 0.0 | 0.0 | 0.00 | 0.66 | 0.43 | 70 | 1012.3 |
| 20260507011835 | 53 | 284 | 0.0 | 0.0 | 0.00 | 0.66 | 0.43 | 68 | 1012.0 |
| 20260507010828 | 54 | 283 | 0.0 | 2.0 | 0.00 | 0.66 | 0.43 | 63 | 1011.9 |
| 20260507005831 | 54 | 284 | 1.0 | 3.0 | 0.00 | 0.66 | 0.43 | 62 | 1011.8 |
| 20260507004834 | 54 | 283 | 1.0 | 3.0 | 0.00 | 0.66 | 0.43 | 60 | 1011.8 |
| 20260507003829 | 55 | 300 | 2.0 | 5.0 | 0.00 | 0.66 | 0.43 | 59 | 1011.7 |
| 20260507002849 | 55 | 296 | 1.0 | 8.0 | 0.00 | 0.66 | 0.43 | 59 | 1011.8 |
| 20260507001842 | 56 | 337 | 2.0 | 5.0 | 0.00 | 0.66 | 0.43 | 59 | 1011.6 |
| 20260507000832 | 56 | 333 | 3.0 | 6.0 | 0.00 | 0.66 | 0.43 | 58 | 1011.6 |
| 20260506235817 | 56 | 318 | 2.0 | 7.0 | 0.00 | 0.68 | 0.43 | 60 | 1011.5 |
| 20260506234900 | 56 | 284 | 3.0 | 9.0 | 0.00 | 0.68 | 0.43 | 58 | 1011.4 |
| 20260506233830 | 56 | 342 | 4.0 | 8.0 | 0.00 | 0.68 | 0.43 | 58 | 1011.2 |
| 20260506232850 | 56 | 303 | 4.0 | 8.0 | 0.00 | 0.68 | 0.43 | 58 | 1011.1 |
| 20260506231839 | 57 | 278 | 1.0 | 9.0 | 0.00 | 0.68 | 0.43 | 57 | 1011.2 |
| 20260506230834 | 57 | 355 | 2.0 | 6.0 | 0.00 | 0.68 | 0.43 | 56 | 1010.9 |
| 20260506225818 | 57 | 325 | 3.0 | 8.0 | 0.00 | 0.74 | 0.43 | 56 | 1010.6 |
| 20260506224824 | 57 | 311 | 2.0 | 6.0 | 0.00 | 0.74 | 0.43 | 56 | 1010.7 |
| 20260506223816 | 57 | 314 | 3.0 | 9.0 | 0.00 | 0.74 | 0.43 | 56 | 1010.9 |
| 20260506222856 | 57 | 338 | 2.0 | 8.0 | 0.00 | 0.74 | 0.43 | 54 | 1011.0 |
| 20260506221853 | 58 | 346 | 3.0 | 9.0 | 0.00 | 0.74 | 0.43 | 53 | 1011.1 |
| 20260506220823 | 58 | 342 | 0.0 | 9.0 | 0.00 | 0.74 | 0.43 | 55 | 1011.0 |
| 20260506215828 | 58 | 283 | 3.0 | 8.0 | 0.00 | 0.87 | 0.43 | 53 | 1011.2 |
| 20260506214853 | 58 | 320 | 4.0 | 7.0 | 0.00 | 0.87 | 0.43 | 54 | 1011.3 |
| 20260506213825 | 59 | 325 | 2.0 | 8.0 | 0.00 | 0.87 | 0.43 | 52 | 1011.2 |
| 20260506212844 | 59 | 335 | 2.0 | 6.0 | 0.00 | 0.87 | 0.43 | 52 | 1011.2 |